RH
59 51 41 60 70 74 86 73 71 71 73 48 34 47 62 61 54 56 54 61 88 84 73 58 94 73 56 83 86 86 66 68 48 67 72 90 79 89 82 72 73 62 50
46 50 42 59 70 78 84 76 74 73 70 52 46 55 63 62 56 60 46 73 78 82 97 92 77 74 61 83 82 74 50 46 42 62 80 89 83 84 80 70 71 73 88
56 58 49 70 77 79 85 78 76 79 71 53 53 54 66 63 48 66 50 88 85 79 96 85 83 68 58 80 75 57 82 87 84 61 74 84 80 85 74 71 73 81 87
57 58 56 66 82 77 82 77 81 78 71 51 60 50 57 46 51 76 67 63 80 76 87 86 76 70 66 83 69 79 96 92 90 90 88 95 90 87 82 83 83 84 84
68 63 65 82 90 81 78 80 87 76 60 57 48 33 42 49 65 90 86 84 69 65 73 71 59 57 82 86 78 87 92 92 91 91 86 96 94 98 85 82 80 82 88
66 68 81 90 85 84 82 82 85 74 49 44 32 46 46 69 98 97 94 83 74 70 54 53 44 54 81 84 87 78 93 93 85 84 89 94 91 94 89 86 80 87 84
67 72 85 91 85 85 83 83 75 65 52 24 40 52 50 82 92 85 79 67 54 51 60 36 45 50 83 85 77 78 80 84 84 84 84 93 96 98 89 83 80 88 88
68 70 86 86 86 87 84 80 67 41 49 26 53 65 61 87 77 66 58 55 43 46 30 32 40 45 81 84 79 80 81 84 87 83 88 89 97 97 98 71 72 90 96
73 70 80 85 88 90 85 78 62 39 39 33 72 73 71 90 75 69 68 52 34 38 58 40 33 46 79 82 89 80 95 89 84 96 74 88 93 97 99 86 92 97 87
78 82 77 83 88 95 88 83 57 45 37 38 70 83 84 89 82 76 52 33 24 48 78 62 58 40 74 80 84 90 89 86 85 83 78 93 94 97 98 96 99 98 84
86 98 94 82 89 93 91 88 52 49 40 41 76 78 81 91 89 61 42 27 36 64 85 86 77 55 66 80 80 89 99 87 81 78 73 86 97 94 98 98 98 98 99
98 100 100 99 89 89 91 89 48 55 44 44 68 78 79 95 86 53 34 29 62 75 84 83 78 68 65 74 86 99 100 88 75 76 79 77 79 100 99 98 97 75 88
92 99 100 100 99 98 94 87 48 60 50 69 77 74 81 93 70 62 41 59 81 91 82 83 82 67 72 92 96 95 98 92 79 75 88 91 96 97 95 99 98 98 77
83 92 100 100 100 99 99 85 48 62 64 88 89 91 88 96 72 62 43 49 79 84 79 82 83 75 74 96 99 99 92 91 80 74 84 87 87 96 98 90 96 98 96
70 71 91 100 100 100 98 95 57 64 63 80 91 100 99 84 77 64 47 56 75 83 79 77 86 84 74 84 91 80 78 83 82 79 74 84 92 97 94 87 97 98 99
63 62 63 91 100 100 99 96 80 81 74 86 88 100 98 86 79 71 53 58 80 84 87 81 80 81 76 74 78 80 79 78 85 82 82 87 93 96 84 86 90 97 94
59 58 53 60 91 100 99 96 100 74 90 93 88 96 98 90 82 76 69 64 76 84 80 83 79 78 76 82 82 81 81 80 88 87 78 94 96 80 85 81 86 97 99
57 54 54 57 66 79 96 98 97 93 85 94 94 97 99 95 83 81 84 83 77 88 88 86 81 79 79 79 80 82 84 86 87 85 90 80 83 91 95 83 99 99 99
76 61 55 55 63 68 81 89 84 86 89 90 97 100 100 98 90 78 85 87 86 83 80 80 82 83 82 82 80 82 85 86 88 90 95 95 95 89 80 46 100 93 98
90 79 65 71 75 72 68 94 82 90 96 92 100 100 98 98 94 88 90 93 91 84 82 82 82 84 82 84 86 89 88 88 88 86 95 92 76 62 58 33 100 98 98
90 87 76 70 61 67 68 87 92 78 100 100 98 98 100 96 97 94 91 94 87 84 83 83 81 82 85 88 85 90 91 91 85 92 91 72 64 62 47 59 87 99 98
91 92 86 82 85 72 82 97 94 87 100 95 95 99 100 99 96 92 90 90 88 82 82 81 84 82 90 89 92 88 91 93 89 91 83 55 51 61 54 96 85 74 93
94 94 98 97 83 96 91 84 94 81 88 100 91 98 100 100 99 94 92 88 88 82 79 80 86 83 88 89 86 76 91 85 95 96 88 76 47 38 48 75 100 87 72
97 96 98 100 94 92 99 92 90 96 97 99 94 100 98 95 87 93 89 92 84 84 78 77 86 83 82 89 81 72 60 56 83 95 93 87 63 45 52 60 70 71 70
95 95 96 100 100 99 99 93 83 100 98 93 98 100 93 91 85 92 96 93 84 84 80 75 86 83 66 69 71 74 71 63 54 64 94 92 92 79 69 67 67 66 64
95 95 94 98 100 99 98 100 96 96 96 90 99 98 90 100 91 94 98 86 88 85 81 73 70 72 68 61 73 60 68 64 70 55 58 87 86 90 81 76 73 66 63
Wind_Speed
14 7 25 28 27 26 25 24 23 19 14 12 12 15 19 20 21 23 24 22 18 18 19 21 18 18 23 21 20 19 19 19 20 21 23 22 20 21 19 19 21 21 20
14 12 25 30 28 27 27 25 23 20 15 12 13 16 21 21 20 22 24 25 20 17 21 20 15 18 22 20 20 20 20 21 21 20 20 21 21 20 21 19 19 20 21
13 13 27 31 29 29 28 25 23 19 15 14 15 17 20 19 22 24 25 22 21 20 17 17 15 17 20 21 20 24 25 22 20 18 19 19 20 19 20 19 17 19 20
15 14 26 31 30 29 28 26 23 19 16 16 16 19 20 21 25 26 26 22 20 16 11 12 12 17 22 22 21 24 24 21 20 19 19 17 18 16 17 19 18 18 17
16 18 24 30 30 30 29 26 23 20 17 17 18 23 24 24 22 22 25 24 19 14 10 7 11 22 24 21 22 24 21 16 16 17 16 15 14 13 13 14 17 16 15
17 20 17 31 32 31 30 28 26 21 18 18 21 25 28 26 24 27 25 21 16 13 10 11 14 22 24 23 22 20 20 16 14 12 13 12 12 14 12 15 14 17 14
18 22 16 29 32 32 30 28 26 23 21 21 25 26 27 25 26 22 18 13 10 10 10 12 15 21 25 23 19 17 15 12 11 10 11 11 12 14 12 11 11 13 14
18 23 19 23 33 34 32 30 27 25 23 25 27 27 27 28 25 20 14 11 10 11 11 14 20 25 25 23 17 14 14 12 11 10 10 12 11 12 14 12 10 10 11
15 23 24 20 34 35 35 32 29 28 26 28 28 29 27 27 24 22 16 12 12 18 18 17 18 26 24 22 18 12 11 12 9 12 13 12 11 10 12 13 15 12 9
16 23 26 22 35 37 35 33 31 30 29 30 30 28 28 26 26 20 15 13 20 24 20 19 18 22 24 21 18 14 10 7 10 10 14 12 10 11 17 13 14 15 14
13 17 21 23 34 39 37 34 33 32 31 32 31 31 29 27 25 19 16 18 29 26 22 22 17 19 24 21 18 15 11 9 11 11 13 13 13 12 16 16 15 19 18
11 17 21 24 31 37 38 38 36 36 36 36 35 34 32 30 25 21 20 31 31 26 23 23 19 19 23 21 18 14 13 10 13 10 14 15 13 15 17 15 13 15 17
15 14 16 27 31 36 41 42 41 41 40 39 37 36 34 34 29 25 29 32 30 27 25 25 22 20 26 21 23 14 13 12 14 10 15 15 15 15 15 15 15 15 15
18 17 15 20 31 34 38 47 48 48 45 41 39 40 40 37 34 30 31 32 29 27 25 25 23 21 22 16 20 17 13 11 14 10 14 14 15 17 16 15 14 14 17
26 21 17 17 26 34 14 48 53 53 50 46 43 46 41 40 37 32 32 33 31 30 26 23 25 20 20 17 16 15 11 9 12 10 10 12 13 15 14 14 13 14 14
30 27 24 20 22 33 34 8 55 52 53 49 47 48 44 41 39 34 33 33 31 30 29 27 26 23 23 20 19 15 14 13 13 13 11 13 17 14 7 8 8 11 12
32 32 25 27 24 30 20 23 30 55 51 51 49 50 46 44 39 35 33 30 32 27 28 28 23 26 25 20 21 17 13 11 12 12 12 10 13 10 4 3 8 6 11
31 32 30 27 27 29 22 20 12 48 55 50 51 52 48 46 40 36 33 29 34 31 32 31 29 28 25 23 26 21 20 15 13 14 12 11 11 8 4 5 11 10 11
29 30 31 25 30 26 20 19 49 9 54 54 53 54 50 47 42 37 34 33 35 34 34 33 32 31 29 25 28 21 18 19 17 17 13 13 15 11 9 6 13 10 11
25 25 27 22 22 21 23 14 37 43 58 61 54 54 51 48 45 38 37 37 35 35 34 34 34 32 30 28 29 21 15 19 16 15 16 13 12 13 11 10 14 13 12
24 23 22 21 17 19 15 16 19 42 58 57 54 52 51 48 46 41 39 37 36 36 37 35 34 35 30 30 29 21 18 13 14 16 16 13 12 12 14 14 13 14 13
25 23 19 14 13 11 11 13 15 21 21 56 54 50 53 52 49 44 42 38 37 39 38 34 35 37 29 28 37 28 20 15 14 12 12 12 16 15 16 14 11 10 13
27 23 19 15 11 11 9 14 15 48 39 45 54 51 52 54 49 44 42 40 38 39 38 38 38 40 37 35 37 17 17 11 22 16 15 12 16 16 16 18 16 11 11
30 23 17 14 11 10 11 8 18 29 39 16 52 54 53 51 49 47 46 41 38 39 38 40 39 41 40 39 34 17 12 19 15 16 18 17 14 16 16 16 16 14 10
30 25 19 14 12 10 12 12 12 20 36 10 53 44 54 54 52 48 46 40 40 41 39 40 40 40 37 37 37 25 18 15 18 22 25 23 17 15 16 15 14 13 11
30 26 20 16 14 10 9 10 8 16 25 39 24 55 51 54 53 50 47 41 41 42 42 40 39 37 34 33 33 30 24 28 21 20 23 29 25 22 18 16 15 13 12
Wind_Direction
214 221 187 181 179 177 177 175 172 173 173 164 153 148 146 142 136 136 135 133 124 128 129 134 122 123 129 110 119 116 106 98 105 111 105 98 95 93 90 90 81 79 75
218 209 190 184 180 177 179 177 178 174 177 171 157 155 154 148 143 138 138 136 134 134 132 134 142 126 131 115 116 113 103 97 102 111 107 97 93 90 88 86 82 84 82
224 219 191 185 181 178 179 180 180 180 181 178 163 160 161 160 152 143 139 141 143 147 126 137 143 138 133 119 122 113 104 101 98 101 107 95 92 87 90 89 90 88 85
217 230 197 187 185 182 182 182 183 182 182 177 170 162 166 159 157 153 149 154 151 149 156 142 138 147 134 124 122 115 102 101 102 101 99 98 97 95 99 94 94 92 87
203 220 203 188 187 184 184 184 185 185 182 179 174 160 159 159 158 157 156 153 155 158 158 163 146 147 134 131 123 113 101 101 109 100 98 95 99 101 103 100 97 96 90
204 224 209 189 189 188 188 188 187 187 183 178 169 164 160 157 150 151 151 150 147 151 153 156 137 146 135 133 125 121 111 109 113 119 114 92 79 90 100 98 103 91 77
202 218 203 195 191 191 190 190 189 187 181 175 169 167 163 160 160 158 157 163 162 163 165 166 152 147 138 137 131 130 126 124 111 105 92 102 95 89 93 109 116 102 89
211 227 218 202 195 195 192 191 190 186 181 174 172 171 169 167 159 158 156 163 169 162 149 150 148 150 144 134 127 126 122 128 113 104 96 87 99 97 90 102 120 107 94
233 231 225 216 202 198 195 193 191 185 182 176 174 173 174 169 162 159 161 167 161 149 137 136 144 148 145 136 135 127 115 110 120 88 89 96 100 104 90 89 94 97 100
234 227 232 226 207 200 199 197 192 186 183 179 177 177 176 170 162 163 164 160 152 147 147 143 137 148 146 147 138 128 116 99 95 79 91 104 107 105 97 89 91 94 85
207 211 225 231 214 206 199 198 196 188 185 181 179 183 181 175 169 166 160 157 150 150 149 145 148 150 151 144 143 136 131 121 100 81 66 109 106 101 103 96 93 91 93
236 212 212 221 227 213 203 198 196 190 186 184 183 183 182 179 175 167 150 152 153 157 154 148 150 148 147 142 147 143 140 121 104 76 61 82 91 116 109 103 99 91 95
274 259 221 222 217 217 204 200 195 192 188 186 186 183 182 180 176 162 155 158 159 161 159 153 153 155 151 148 154 137 125 134 115 99 80 80 84 93 101 108 94 94 93
294 269 252 228 220 222 200 203 197 192 189 189 185 181 183 179 178 169 165 169 170 164 168 160 157 156 160 148 136 144 146 129 117 105 95 89 78 84 92 71 94 94 93
303 298 272 251 228 222 228 208 199 194 191 190 184 178 179 183 179 174 171 171 174 170 169 172 155 159 173 169 156 153 155 139 128 127 117 112 105 103 87 67 74 92 93
305 300 307 275 254 239 250 263 197 194 193 191 185 181 182 187 183 178 176 174 175 174 169 167 151 160 155 173 177 169 169 157 154 139 138 139 128 123 122 124 101 92 92
303 306 305 302 275 278 294 247 187 196 190 193 189 186 186 188 187 182 178 175 173 175 176 166 164 163 161 165 161 163 181 175 159 155 152 144 140 141 125 194 167 104 113
301 303 301 302 306 306 303 226 258 196 195 194 193 188 188 189 189 184 179 170 170 175 168 173 172 169 167 174 162 154 158 156 164 166 172 183 207 187 169 232 126 100 115
307 302 300 307 314 314 315 260 233 232 201 194 194 191 188 190 189 189 177 174 180 185 183 181 176 173 176 173 168 163 165 171 184 175 176 184 207 218 208 151 124 121 122
320 311 304 314 316 325 312 277 215 256 197 194 189 192 188 191 190 187 176 179 184 182 179 179 176 175 182 174 167 158 162 181 189 171 189 203 210 202 194 156 136 133 123
335 325 318 318 321 324 320 275 247 238 178 184 189 193 186 192 188 184 183 183 190 184 181 182 175 172 178 179 169 162 158 171 174 184 199 196 180 157 146 141 144 144 139
341 338 329 329 330 309 309 290 227 217 185 190 193 191 190 191 188 187 187 188 192 186 184 181 176 171 178 181 169 161 157 157 171 179 194 187 177 174 163 154 148 144 150
348 348 341 336 321 323 298 292 252 216 241 190 193 193 189 192 188 190 193 196 193 190 186 181 178 174 173 174 181 160 154 180 167 181 192 193 184 177 171 165 164 167 165
352 351 345 341 324 320 310 279 263 232 229 234 190 187 194 195 194 190 197 199 196 192 190 185 185 185 180 177 188 178 182 183 161 172 196 187 193 183 177 174 176 176 177
356 355 351 351 347 329 315 299 261 246 203 267 191 180 195 199 199 196 196 203 197 195 195 191 190 193 197 186 185 181 190 183 190 177 173 182 191 188 188 184 180 182 187
360 0 357 359 358 352 308 298 257 239 230 223 225 198 196 194 197 197 199 206 199 197 198 198 198 199 198 191 192 190 186 171 176 179 183 181 185 190 195 193 194 192 194